DECAYED
Showing default

ELYUSIUM/LOWER FREE FLYE, 43760 (Decayed)

Orbit data source: Space-Track

ELYUSIUM/LOWER FREE FLYE, 43760 was a payload satellite owned by Spaceflight Ind (US) in LEO that was launched on Mon, 03 Dec 2018 UTC via an FALCON 9 launch vehicle from the Air Force Western Test Range (AFWTR). Payload-class satellites include a variety of spacecraft equipped with specific instruments for various scientific and technological missions. These include communications satellites like Starlink; space stations such as the ISS; scientific satellites like the Hubble; Earth observation satellites from companies like Planet Labs, Umbra, and HawkEye 360; GPS; miniature CubeSats for education and research; and military/defense satellites.

Not visible in the next 10 days
Identifier
43760, 2018-099C
Orbit
Decayed
Last TLE update
7 months ago
Origin
Manufacturer
Spaceflight Ind
Mission
Decayed Commercial Technology
Bus & Motor
SFL-LFF, Unknown motor
Mass
421 kg wet, 260 kg dry
Launch date (UTC)
2018-12-03 (7 years ago)
Launch vehicle
FALCON 9
Launch site
Air Force Western Test Range (AFWTR)
Object type
Payload
Rocket body
Debris
Shape & HBR
Cyl + 1 Sail, 4 m
Radar Cross Section
2.337 m², Large (>1 m²)

Expand to show TLE details & history

TLE from 7 months ago
0 ELYUSIUM/LOWER FREE FLYE
1 43760U 18099C   24340.97643840  .22687725  25922-5  37698-3 0  9991
2 43760  97.4552  54.3313 0009931 279.3000 200.1657 16.47590242329764
Epoch: 2024-12-05T23:26Z
TLE epoch observation values (Epoch: 2024-12-05T23:26:04.277Z)
Latitude
59.83214°
Longitude
-179.50198°
Altitude
162.015 km
Speed
7.811 km/s
True Right ascension
16h 29m 03s
True Declination
59° 40' 08"
Sunlit
Object was in daylight at epoch
Visualization orbit readout
Visualization observer readout
Orbital elements
Apogee altitude
148.965 km
Perigee altitude
136.014 km
Semi-major axis
6,520.626 km
Eccentricity
0.00099
Inclination
97.4552°
RAAN
54.3313°
Arg. of periapsis
279.3°
True anomaly
Unknown
Mean anomaly
200.1657°
Eccentric anomaly
Unknown
Mean motion
4.12201 °/min
Orbital period
87.34 mins
BSTAR
0.00037698
Loading maneuver chart data...
Loading SW <> Apogee altitude chart data...
Loading historical data...
Loading historical data...
Loading historical data...
Loading historical data...
Loading historical data...
Loading historical data...
Loading historical data...

ELYUSIUM/LOWER FREE FLYE Visibility

Observer location: undefined°, undefined°

This satellite is decayed
Span
Click to sort rows by Start time (UTC) header in descending order
Start Az.
Max El. time (UTC)
Max El. Az.
Max El.
End time (UTC)
End Az.
|